Weather History for Homer, AK

Change the Weather History Date:

Tuesday, October 11, 2011

  Actual Average Record
Temperature  
Mean Temperature 36 °F -  
Max Temperature 46 °F 46 °F 54 °F (1986)
Min Temperature 25 °F 33 °F 15 °F (1939)
Degree Days  
Heating Degree Days 30    
Moisture  
Dew Point 28 °F    
Average Humidity 76    
Maximum Humidity 96    
Minimum Humidity 44    
Precipitation  
Precipitation 0.00 in - - ()
Sea Level Pressure  
Sea Level Pressure 29.59 in    
Wind  
Wind Speed 2 mph (NNE)    
Max Wind Speed 8 mph    
Max Gust Speed -    
Visibility 10 miles    
Events      
Averages and records for this station are not official NWS values.
T = Trace of Precipitation, MM = Missing Value Source: NWS Daily Summary

Daily Weather History Graph

Daily Weather History Graph

Search for Another Location

Airport:

Trip Planner

Search our weather history database for the weather conditions in past years. The results will help you decide how hot, cold, wet, or windy it might be!

Date:

Astronomy

Oct. 11, 2011 Rise Set
Actual Time 8:34 AM AKDT 7:09 PM AKDT
Civil Twilight 7:53 AM AKDT 7:50 PM AKDT
Nautical Twilight 7:05 AM AKDT 8:38 PM AKDT
Astronomical Twilight 6:17 AM AKDT 9:26 PM AKDT
Moon 6:27 PM AKDT (10/11) 8:35 AM AKDT (10/11)
Length of Visible Light 11h 57m
Length of Day
10h 34m
Full, 100% of the Moon is Illuminated
Oct 11
Full
Oct 11
Full
Oct 19
Last Quarter
Oct 26
New
Nov 2
First Quarter

Hourly Weather History & Observations

Time (AKDT) Temp. Windchill Dew Point Humidity Pressure Visibility Wind Dir Wind Speed Gust Speed Precip Events Conditions
12:53 AM 32.0 °F - 28.9 °F 88% 29.53 in 10.0 mi Calm Calm - N/A   Clear
1:53 AM 28.9 °F - 28.0 °F 96% 29.53 in 10.0 mi Calm Calm - N/A   Clear
2:53 AM 28.0 °F - 27.0 °F 96% 29.53 in 10.0 mi Calm Calm - N/A   Clear
3:53 AM 28.9 °F - 28.0 °F 96% 29.52 in 10.0 mi Calm Calm - N/A   Clear
4:53 AM 28.9 °F - 28.0 °F 96% 29.52 in 10.0 mi Calm Calm - N/A   Clear
5:53 AM 28.0 °F 24.2 °F 27.0 °F 96% 29.53 in 10.0 mi NNE 3.5 mph - N/A   Clear
6:53 AM 28.0 °F - 26.1 °F 92% 29.54 in 10.0 mi Calm Calm - N/A   Clear
7:53 AM 25.0 °F - 24.1 °F 96% 29.55 in 10.0 mi Calm Calm - N/A   Clear
8:53 AM 30.0 °F - 26.1 °F 85% 29.55 in 10.0 mi Calm Calm - N/A   Clear
9:53 AM 30.9 °F - 27.0 °F 85% 29.56 in 10.0 mi Calm Calm - N/A   Clear
10:53 AM 39.9 °F - 32.0 °F 73% 29.57 in 10.0 mi Calm Calm - N/A   Clear
11:53 AM 39.0 °F 35.7 °F 32.0 °F 76% 29.58 in 10.0 mi SE 4.6 mph - N/A   Clear
12:53 PM 41.0 °F 38.0 °F 33.1 °F 73% 29.58 in 10.0 mi ESE 4.6 mph - N/A   Clear
1:53 PM 42.1 °F 38.4 °F 33.1 °F 70% 29.59 in 10.0 mi ESE 5.8 mph - N/A   Clear
2:53 PM 43.0 °F 39.5 °F 32.0 °F 65% 29.59 in 10.0 mi South 5.8 mph - N/A   Clear
3:53 PM 44.1 °F - 30.0 °F 58% 29.59 in 10.0 mi Calm Calm - N/A   Clear
4:53 PM 46.0 °F 43.1 °F 25.0 °F 44% 29.60 in 10.0 mi North 5.8 mph - N/A   Clear
5:53 PM 44.1 °F 39.5 °F 26.1 °F 49% 29.61 in 10.0 mi North 8.1 mph - N/A   Clear
6:53 PM 42.1 °F 38.4 °F 26.1 °F 53% 29.63 in 10.0 mi Variable 5.8 mph - N/A   Clear
7:53 PM 39.0 °F 36.8 °F 26.1 °F 60% 29.65 in 10.0 mi NW 3.5 mph - N/A   Clear
8:53 PM 34.0 °F 29.8 °F 26.1 °F 73% 29.66 in 10.0 mi NNW 4.6 mph - N/A   Clear
9:53 PM 36.0 °F 31.1 °F 27.0 °F 70% 29.68 in 10.0 mi NNW 5.8 mph - N/A   Clear
10:53 PM 37.0 °F 31.6 °F 28.9 °F 73% 29.70 in 10.0 mi NNW 6.9 mph - N/A   Clear
11:53 PM 37.9 °F 32.7 °F 28.9 °F 70% 29.72 in 10.0 mi North 6.9 mph - N/A   Clear